User: anonymous   Login
Location: Unspecified
(0.0000°N, 0.0000°E)
Time: 23:34:30
(UTC+00:00)
Language:

FENGYUN 1C DEB - Orbit

View from above orbital plane
View from above orbital plane
View from above satellite
View from above satellite

Ground track
Ground track

The orbit data is extracted from the following two-line orbital elements,

1 32357U 99025CZA 21340.28944510  .00000956  00000-0  59254-3 0  9996
2 32357  98.8675 131.4620 0567022  28.6546  82.3986 13.48166874468894
Epoch (UTC): 06 December 2021 06:56:48
Eccentricity: 0.0567022
inclination: 98.8675°
perigee height: 656 km
apogee height: 1502 km
right ascension of ascending node: 131.4620°
argument of perigee: 28.6546°
revolutions per day: 13.48166874
mean anomaly at epoch: 82.3986°
orbit number at epoch: 46889

The dashed part of the orbit path shows where the satellite is in the earth's shadow,  

DLR